Location: Cerboaia
(46.1333°N, 22.5167°E)
Time: 01:03:33
(UTC+00:00)

Daily predictions for brighter satellites

Satellite Brightness Start Highest point End
(mag) Time Altitude Azimuth Time Altitude Azimuth Time Altitude Azimuth
Cosmos 2263 Rocket 4.3 02:04:25 17° SE 02:07:01 23° E 02:11:21 10° NE
ATLAS 3B R/B 4.3 02:12:27 24° N 02:13:40 25° NNE 02:19:19 10° E
NOSS 3-2 (C) 4.2 02:33:03 55° N 02:34:45 68° NE 02:43:12 10° SE
Cosmos 1943 4.2 02:35:21 39° NNE 02:36:18 42° NE 02:41:41 10° SE
Nadezhda 1 Rocket 4.0 02:44:09 75° NNE 02:44:39 82° E 02:50:57 10° S
CENTAUR R/B 3.2 02:45:10 47° NNW 02:47:56 78° NE 02:56:49 10° SE
Cosmos 2227 Rocket 4.1 02:58:27 17° N 02:58:27 17° N 03:00:01 10° N
Cosmos 1538 Rocket 4.4 02:54:50 60° NE 02:55:20 63° ENE 03:00:34 10° SSE
ATLAS 2AS CENTAUR R/B 4.2 02:48:41 10° S 02:55:55 41° ESE 03:03:09 10° NE
SL-4 R/B 3.8 02:58:04 27° ENE 02:58:04 27° ENE 02:59:53 10° ENE
Meteor 1-31 Rocket 4.2 02:56:32 10° NNE 03:04:22 - S 02:59:54 36° E
Cosmos 489 Rocket 4.4 03:00:34 46° NNW 03:02:36 82° ENE 03:08:56 10° SSE
ARGOS Delta rocket 4.1 02:58:04 10° NNE 03:03:18 73° E 03:08:13 10° S
NOSS 3-2 (A) 4.0 03:03:00 57° W 03:04:19 65° WSW 03:12:43 10° SSE
Gbstr 26 Del rocket 4.0 03:14:20 34° NE 03:14:20 34° NE 03:17:05 10° E
USA 238 DEB 3.9 03:18:26 49° WNW 03:19:59 59° WSW 03:27:20 10° SSE
USA 238 3.9 03:18:30 49° WNW 03:20:05 59° WSW 03:27:26 10° SSE
USA 307 4.1 03:21:20 32° NNE 03:21:20 32° NNE 03:24:24 10° NE
Cosmos 1633 3.4 03:18:24 10° S 03:21:48 47° E 03:25:13 10° NNE
SKYMED 2 4.1 03:18:21 10° SSE 03:22:35 56° ENE 03:25:15 22° N
METEOR-M 4.1 03:17:31 10° NNE 03:22:53 81° ESE 03:28:14 10° SSW
Lacrosse 4 Rocket 2.2 03:22:25 41° N 03:23:26 50° NE 03:27:42 10° SE
Timation 1 Rocket 4.5 03:25:47 49° NW 03:25:47 49° NW 03:31:37 10° NNE
Cosmos 1745 Rocket 4.0 03:22:53 31° SW 03:25:49 56° WNW 03:32:04 10° N
USA 308 4.0 03:27:19 32° N 03:27:19 32° N 03:30:37 10° NE
SAR-Lupe-4 3.8 03:26:02 10° SSE 03:29:34 66° ENE 03:29:40 65° ENE
Cosmos 1184 Rocket 3.9 03:26:54 10° S 03:30:02 44° E 03:33:12 10° NNE
Cosmos 2297 Rocket 4.2 03:32:24 14° NNW 03:32:24 14° NNW 03:33:46 10° N
Cosmos 1461 3.0 03:33:13 65° WNW 03:33:50 79° SW 03:38:23 10° SSE
CZ-4B R/B 3.7 03:33:03 10° NNE 03:37:31 57° E 03:41:53 10° S
CZ-4C R/B 3.7 03:33:12 10° S 03:37:32 33° ESE 03:42:34 10° NE
Cosmos 1151 Rocket 3.0 03:35:40 23° N 03:38:18 79° E 03:42:33 10° SSE
ALOS 2.3 03:35:18 10° N 03:39:52 55° WNW 03:40:31 50° WSW
Cosmos 2181 Rocket 4.0 03:35:29 10° N 03:41:46 85° E 03:47:55 10° S
Cosmos 1689 Rocket 2.4 03:41:55 10° SSE 03:44:28 60° ESE 03:44:28 60° ESE
CRYOSAT 2 4.3 03:40:43 10° S 03:45:34 88° E 03:50:28 10° N
H-2A R/B 4.4 03:42:18 10° NNE 03:45:57 36° E 03:49:34 10° SSE
SAR-Lupe-1 3.9 03:43:04 10° SSE 03:46:38 82° WSW 03:47:16 59° NNW
Cosmos 1328 Rocket 3.5 03:44:55 14° N 03:48:45 88° ENE 03:53:11 10° S
Lacrosse 5 2.6 03:44:02 10° SSW 03:48:57 53° SE 03:53:53 10° ENE
Cosmos 2263 Rocket 2.2 03:46:17 18° SW 03:50:28 60° WNW 03:56:08 10° NNE
ERS-2 3.9 03:47:18 10° SSW 03:48:39 20° SSW 03:48:39 20° SSW
Cosmos 1709 Rocket 4.0 03:45:08 10° SSW 03:51:26 63° WNW 03:57:47 10° N
ERBS 3.3 03:52:13 32° N 03:52:13 32° N 03:54:35 10° NE
Meteor 2-3 Rocket 3.7 03:50:03 10° SSW 03:55:45 82° W 04:01:34 10° N
USA 305 4.0 03:56:32 28° NNW 03:57:16 30° N 04:01:06 10° NE
PSLV R/B 3.8 03:54:23 10° SSE 03:58:33 82° WSW 04:02:08 14° NNW
Meteor PRIRODA 3.6 03:57:17 10° NNE 04:01:02 90° NW 04:04:46 10° SSW
Cosmos 923 Rocket 3.9 03:56:39 15° NNW 04:01:02 82° WSW 04:06:21 10° SSE
SJ 16-02 1.2 03:56:58 10° SSW 04:01:22 76° WNW 04:05:49 10° NNE
Okean 3 Rocket 3.6 03:58:18 10° SSW 04:02:34 51° WNW 04:06:53 10° N
Cosmos 1766 Rocket 3.6 04:00:07 10° SSW 04:04:29 53° WNW 04:08:54 10° N
ATLAS 3B R/B 3.0 03:59:42 15° NW 04:05:34 70° NE 04:12:45 10° SE
USA 306 4.1 04:04:26 25° NW 04:05:34 29° N 04:09:22 10° NE
EO 1 Delta rocket 4.1 04:03:58 10° SSE 04:09:15 77° ENE 04:13:54 10° N
CZ-2C R/B 4.3 04:05:10 10° SE 04:10:02 33° ENE 04:14:49 10° N
Cosmos 1603 4.3 04:08:23 25° WNW 04:10:38 35° WSW 04:15:40 10° S
COSMO-SKYMED 1 2.8 04:06:28 10° S 04:10:39 46° W 04:13:49 17° NNW
SJ-12 4.0 04:07:12 10° N 04:11:08 49° WNW 04:15:02 10° SSW
FENGYUN 3A 4.2 04:06:50 10° N 04:11:40 34° WNW 04:16:28 10° SW
Cosmos 990 Rocket 4.2 04:07:53 10° SSW 04:13:05 74° ESE 04:18:21 10° NNE
Cosmos 1408 Rocket 3.5 04:08:59 10° SSW 04:13:27 77° W 04:17:55 10° N
EXPRESS MD2 4.0 04:17:00 26° WNW 04:18:58 56° N 04:25:42 10° E
ADEOS 4.2 04:14:47 10° N 04:19:22 32° WNW 04:23:56 10° SW
Cosmos 2074 Rocket 4.0 04:13:39 10° S 04:19:52 88° E 04:26:07 10° N
Cosmos 1943 3.9 04:17:13 21° NW 04:20:13 34° WSW 04:25:16 10° SSW
Cosmos 1933 4.3 04:21:48 24° WNW 04:22:40 26° W 04:26:05 10° SW
PSLV R/B 3.9 04:19:35 10° NNE 04:23:31 78° E 04:27:19 10° S
MOS 1 Rocket 3.3 04:21:41 10° S 04:26:24 83° WSW 04:31:28 10° NNW
NOSS 3-4 (A) 3.5 04:21:03 10° WSW 04:26:52 57° NW 04:33:10 10° NE
ATLAS CENTAUR R/B 1.9 04:23:42 13° NNW 04:26:53 48° NE 04:30:40 10° SE
NOSS 3-4 (C) 3.5 04:21:09 10° WSW 04:27:00 57° NW 04:33:18 10° NE
BREEZE M DEB (TANK) 4.0 04:20:21 10° SW 04:28:34 42° SSE 04:31:31 10° E
Cosmos 1680 Rocket 3.6 04:24:53 10° NNW 04:30:09 62° WSW 04:35:22 10° S
NOAA 6 4.4 04:25:06 10° NNE 04:30:13 68° ESE 04:35:18 10° S
Cosmos 2344 4.5 04:22:23 10° NW 04:31:54 86° SW 04:45:17 10° SSE
Meteor 1-4 Rocket 3.5 04:31:52 21° WNW 04:33:05 25° W 04:35:59 10° SSW
Cosmos 2184 Rocket 4.0 04:27:32 10° SSW 04:33:50 77° W 04:40:15 10° N
SMAP 4.2 04:29:38 10° NNE 04:34:09 47° E 04:38:38 10° S
Meteor 1-31 Rocket 4.1 04:31:31 10° NNW 04:34:18 19° WNW 04:35:13 18° W
SL-4 R/B 2.6 04:33:39 19° WNW 04:35:55 37° N 04:39:22 10° ENE
Cosmos 1782 3.3 04:32:12 10° NNW 04:35:56 37° W 04:39:40 10° SSW
FALCON 9 DEB 3.5 04:34:16 10° SW 04:37:25 58° SE 04:40:36 10° ENE
USA 234 3.4 04:31:20 10° NE 04:37:54 79° SE 04:44:28 10° SW
H-2A R/B 2.4 04:34:03 10° NNE 04:37:56 77° ESE 04:41:45 10° S
RESURS DK-1 2.4 04:34:06 10° SSW 04:38:15 84° ESE 04:42:27 10° NNE
CENTAUR R/B 4.0 04:32:23 14° WNW 04:38:18 32° WSW 04:45:48 10° S
FALCON 9 DEB 3.3 04:36:53 10° SW 04:40:03 66° SE 04:43:16 10° ENE
Cosmos 158 Rocket 4.4 04:37:07 11° NW 04:41:24 36° WSW 04:45:55 10° SSW
Cosmos 2228 Rocket 3.0 04:38:48 10° N 04:43:16 87° W 04:47:39 10° S
Genesis I 3.5 04:40:41 10° SSW 04:44:27 70° SE 04:48:18 10° NE
Atlas Centaur 2 4.4 04:42:29 10° SSW 04:44:48 13° S 04:46:57 10° SSE
SJ-7 4.4 04:42:45 10° N 04:46:43 56° WNW 04:50:43 10° SSW
ATLAS 2AS CENTAUR R/B 3.1 04:38:53 10° SW 04:46:45 61° NW 04:54:30 10° NE
Cosmos 405 Rocket 2.6 04:43:08 10° S 04:46:48 89° W 04:50:33 10° N
Cosmos 2112 Rocket 4.3 04:43:42 10° NNW 04:48:52 50° WSW 04:54:00 10° S
Cosmos 1812 2.7 04:50:30 10° NNW 04:54:19 62° W 04:58:05 10° S
Geosat 4.3 04:49:43 10° SE 04:54:43 71° ENE 04:59:44 10° NNW
Cosmos 1633 4.3 04:55:27 10° W 04:56:54 12° WNW 04:58:21 10° NW
FALCON 9 DEB 2.9 04:56:21 10° WSW 04:59:33 89° SE 05:02:48 10° ENE
Cosmos 1515 Rocket 4.5 04:55:43 10° NNW 04:59:34 29° W 05:03:25 10° SSW
Gbstr 26 Del rocket 2.9 04:56:52 11° WNW 05:00:23 64° SSW 05:04:27 10° SE
USA 307 4.2 04:57:30 10° NW 05:01:17 29° N 05:05:05 10° ENE
Lacrosse 4 Rocket 3.0 04:58:46 10° WNW 05:01:47 19° WSW 05:04:55 10° SSW
EP 3 3.9 05:00:15 10° SSW 05:02:17 65° SE 05:04:12 10° NE
Cosmos 1898 Rocket 3.7 04:57:13 10° SW 05:02:22 51° WNW 05:07:37 10° NNE
Meteor 2-6 Rocket 4.4 05:00:11 10° NNW 05:05:20 46° W 05:10:29 10° SSW
USA 308 4.1 05:03:44 10° NW 05:07:32 29° N 05:11:20 10° ENE
YAOGAN 6 3.0 05:04:32 10° N 05:07:50 37° WNW 05:11:04 10° SW
PAYLOAD B 4.2 05:03:20 10° N 05:08:49 69° WNW 05:14:16 10° SSW
Cosmos 1437 Rocket 2.6 05:06:15 10° NNW 05:10:03 72° W 05:13:48 10° S
Cosmos 1844 Rocket 2.7 05:04:38 10° SW 05:10:14 63° WNW 05:15:54 10° NNE
Envisat 3.2 05:05:22 10° N 05:10:17 50° WNW 05:15:11 10° SW
CZ-4B DEB 4.3 05:05:24 10° N 05:10:43 55° WNW 05:16:02 10° SW
DMSP B5D2-2 4.2 05:06:59 10° SSE 05:12:13 83° ENE 05:17:28 10° NNW
BREEZE-M DEB (TANK) 3.9 05:10:01 10° WSW 05:14:01 84° SSE 05:29:16 10° ENE
Cosmos 1844 3.6 05:08:39 10° SSW 05:14:11 72° WNW 05:19:47 10° NNE
CZ-4 R/B 4.2 05:10:47 10° NE 05:14:12 24° E 05:17:36 10° SSE
Okean O Rocket 1.6 05:11:03 10° N 05:15:30 77° WNW 05:19:57 10° SSW
Cosmos 1707 Rocket 3.7 05:11:45 10° N 05:16:08 80° E 05:20:26 10° SSE
AQUARIUS 4.1 05:12:05 10° N 05:16:35 74° WNW 05:21:03 10° SSW
Nadezhda 3 Rocket 4.2 05:10:56 10° NNW 05:17:03 53° W 05:23:05 10° SSW
